This is the latest recevied weather packets stored in our database for station/object WL7CLI. If no packets are shown the sender has not sent any weather packets the latest 10 day(s).
| Time | Temp. | Humidity | Pressure | Rain* | Wind** | Luminosity | Snow |
|---|---|---|---|---|---|---|---|
| 1777439771 | 10° C | 62% | 1017.6 hPa | 0 mm | - | - | - |
| 1777438704 | 10.56° C | 61% | 1017.9 hPa | 0 mm | - | - | - |
| 1777438570 | 10.56° C | 61% | 1017.8 hPa | 0 mm | - | - | - |
| 1777437372 | 10.56° C | 62% | 1017.8 hPa | 0 mm | - | - | - |
| 1777436904 | 11.11° C | 61% | 1017.8 hPa | 0 mm | - | - | - |
| 1777436171 | 11.11° C | 61% | 1017.6 hPa | 0 mm | - | - | - |
| 1777435103 | 11.11° C | 60% | 1017.6 hPa | 0 mm | - | - | - |
| 1777434972 | 11.11° C | 60% | 1017.8 hPa | 0 mm | - | - | - |
| 1777433771 | 11.67° C | 61% | 1017.8 hPa | 0 mm | - | - | - |
| 1777433304 | 11.67° C | 61% | 1017.5 hPa | 0 mm | - | - | - |
| 1777432571 | 11.11° C | 62% | 1017.6 hPa | 0 mm | - | - | - |
| 1777431504 | 11.11° C | 64% | 1017.3 hPa | 0 mm | - | - | - |
| 1777431370 | 11.11° C | 63% | 1017.5 hPa | 0 mm | - | - | - |
| 1777430171 | 10.56° C | 65% | 1017.4 hPa | 0 mm | - | - | - |
| 1777429704 | 10.56° C | 63% | 1017 hPa | 0 mm | - | - | - |
| 1777428971 | 11.11° C | 63% | 1017.3 hPa | 0 mm | - | - | - |
| 1777427904 | 11.67° C | 60% | 1016.6 hPa | 0 mm | - | - | - |
| 1777427770 | 11.67° C | 59% | 1016.9 hPa | 0 mm | - | - | - |
| 1777426572 | 11.67° C | 57% | 1016.7 hPa | 0 mm | - | - | - |
| 1777426104 | 11.67° C | 57% | 1016.2 hPa | 0 mm | - | - | - |
| 1777425372 | 12.22° C | 56% | 1016.6 hPa | 0 mm | - | - | - |
| 1777424304 | 12.22° C | 58% | 1016.3 hPa | 0 mm | - | - | - |
| 1777424171 | 12.22° C | 57% | 1016.6 hPa | 0 mm | - | - | - |
| 1777422971 | 12.22° C | 52% | 1016.5 hPa | 0 mm | - | - | - |
| 1777422504 | 12.22° C | 53% | 1016.2 hPa | 0 mm | - | - | - |
* Rain latest hour (hover to see other rain measurements)
** Current wind speed in m/s (hover to see current wind gust speed)